Regional Weather Roundup
Issued by NWS

Home | Current Version | Previous Version | Text Only | Print | Product List | Glossary On
Versions: 1 2 3 4 5 6 7 8 9 10 11 12 13 14 15 16 17 18 19 20 21 22 23 24 25 26 27 28 29 30 31 32 33 34 35 36 37 38 39 40 41 42 43 44 45 46 47 48 49 50
180
ASUS43 KTOP 190908
RWRKS

WEATHER ROUNDUP FOR KANSAS
NATIONAL WEATHER SERVICE GOODLAND KS
400 AM CDT SAT AUG 19 2017

NOTE:  "FAIR" INDICATES FEW OR NO CLOUDS BELOW 12,000 FEET WITH NO
SIGNIFICANT WEATHER AND/OR OBSTRUCTIONS TO VISIBILITY.

KSZ001>006-013>018-027>032-041>047-191000-
NORTHWEST KANSAS

CITY           SKY/WX    TMP DP  RH WIND       PRES   REMARKS
GOODLAND       CLEAR     65  55  70 S12       30.06F
HAYS           CLEAR     63  60  90 N5        29.99S
HILL CITY        N/A     60  57  89 NW5       30.01F
RUSSELL        CLEAR     68  64  87 S9        29.97S
$$

KSZ061>065-074>080-084>089-191000-
SOUTHWEST KANSAS

CITY           SKY/WX    TMP DP  RH WIND       PRES   REMARKS
DODGE CITY     CLEAR     65  62  90 CALM      30.03S
ELKHART          N/A     70  67  90 SW7         N/A
GARDEN CITY    CLEAR     66  60  81 E6        30.04F
GREAT BEND     CLEAR     72  67  84 CALM      29.98F
LIBERAL        CLEAR     68  65  90 W5        30.04S
PRATT          CLEAR     67  64  87 SW5       29.98F
$$

KSZ066>073-081>083-090>101-191000-
SOUTHEAST KANSAS

CITY           SKY/WX    TMP DP  RH WIND       PRES   REMARKS
CHANUTE        CLEAR     71  69  93 SE3       29.95F
COFFEYVILLE    CLEAR     71  70  96 CALM      29.95S
HUTCHINSON     CLEAR     70  66  87 E6        29.96S
MEDICINE LODGE   N/A     69  66  90 NE3       29.97R
NEWTON         PTCLDY    70  67  90 E7        29.98S
PARSONS        CLEAR     70  68  93 CALM      29.96F
WICHITA INTL   PTCLDY    74  68  81 E3        29.95S
WICHITA JABRA  CLOUDY    72  69  90 S7        29.96S
WICHITA MCCONL CLEAR     74  66  76 E3        29.96S
WINFIELD       CLEAR     72  69  90 SE3       29.96S
$$

KSZ007>012-019>026-033>040-048>060-102>105-191000-
NORTHEAST KANSAS

CITY           SKY/WX    TMP DP  RH WIND       PRES   REMARKS
CONCORDIA      CLEAR     63  63 100 CALM      29.98R
EMPORIA        CLEAR     69  66  90 SW8       29.95F
LAWRENCE       PTCLDY    65  65 100 NW5       29.93S
MANHATTAN      CLEAR     65  64  97 CALM      29.95R
MARYSVILLE     CLEAR     61  61 100 N3        29.97R
OLATHE IND     CLEAR     71  69  93 CALM      29.94S
OLATHE EXE     CLEAR     70  70 100 S3        29.94R
SALINA         CLEAR     71  66  84 CALM      29.95F
TOPEKA BILLARD CLEAR     66  66 100 NW5       29.93F
TOPEKA FORBES  CLEAR     67  66  97 SW3       29.94R
$$




USA.gov is the U.S. government's official web portal to all federal, state and local government web resources and services.